Cloud_Cover
46 1 3 5 3 0 0 0 0 0 0 0 3 3 2 2 5 5 16 13 99 100 100 7 95 100 95 100 100 100 100 100 100 100 64 98 100 98 88 99 100 95 92 86
88 2 4 5 10 0 0 0 0 0 0 1 4 5 3 5 10 67 15 8 14 44 5 8 99 100 15 62 100 100 100 100 100 98 100 100 100 100 100 100 100 95 69 86
89 17 1 75 5 0 0 0 0 0 0 4 24 50 5 10 13 30 55 21 5 23 8 5 1 54 100 12 5 100 100 96 100 100 100 100 100 100 100 100 100 54 43 95
30 24 2 81 34 0 0 0 5 5 1 12 6 77 35 94 98 3 6 10 98 93 97 53 91 44 5 25 18 4 42 100 60 100 100 100 100 100 100 100 100 100 100 97
85 28 10 43 50 5 4 5 5 80 57 5 6 5 100 100 85 100 19 40 58 100 96 98 5 5 5 5 2 5 4 3 90 23 100 100 100 100 100 100 100 100 100 100
84 95 87 71 87 31 46 48 19 93 20 37 93 97 100 100 100 12 52 95 100 100 58 40 5 5 78 24 5 5 5 38 57 30 100 97 100 100 100 100 100 100 100 100
88 34 85 38 95 96 6 6 61 99 25 45 49 92 100 100 32 96 96 100 100 98 100 88 5 5 41 9 5 5 92 98 100 93 99 100 100 100 100 100 100 100 100 100
100 7 82 99 94 99 9 95 72 94 92 77 21 96 100 44 5 86 100 99 50 14 98 100 91 6 81 88 7 82 38 100 100 100 100 100 100 100 100 100 100 100 100 100
99 94 8 99 99 100 89 100 24 95 88 18 6 76 82 64 27 17 11 70 58 100 100 98 85 78 17 37 45 4 28 84 100 100 100 100 100 100 100 100 100 100 100 100
84 77 98 99 85 77 18 60 56 65 99 15 57 98 98 43 73 90 65 42 35 52 28 49 27 38 53 56 74 16 4 5 87 100 100 100 100 100 100 100 100 100 100 100
98 24 100 100 100 90 56 74 38 59 85 8 18 87 94 99 91 100 19 11 59 57 57 69 100 97 95 92 92 94 41 40 20 83 100 100 96 100 100 100 100 100 100 100
24 82 100 100 100 100 6 100 16 94 81 60 17 53 100 100 84 77 60 55 65 100 89 85 99 100 100 100 97 79 97 92 99 100 100 100 100 100 100 100 100 100 100 100
96 91 76 29 100 100 100 100 52 89 79 66 62 92 100 100 100 94 83 29 53 98 33 92 90 100 100 99 100 100 100 100 100 100 100 100 100 100 100 100 100 100 100 100
100 10 96 76 96 100 100 100 78 86 96 99 94 100 100 100 100 87 91 100 60 78 99 99 100 100 94 98 100 100 100 100 100 100 100 100 100 100 100 100 100 100 100 100
93 6 96 6 96 100 100 64 100 5 58 91 100 100 100 100 100 100 100 100 100 97 100 100 100 100 100 100 100 100 100 100 100 100 100 100 100 100 100 100 100 100 100 99
91 12 41 81 100 100 100 80 100 92 16 100 100 100 100 100 100 100 100 100 100 100 100 100 100 100 100 100 100 100 100 100 100 100 100 100 93 73 97 100 99 96 85 83
85 93 96 91 71 83 96 86 100 100 100 100 100 100 100 100 100 100 100 87 100 99 98 100 100 100 100 100 100 100 100 100 100 100 100 80 60 93 41 20 21 62 85 97
81 30 4 7 36 89 100 100 100 100 100 100 100 100 100 100 100 100 100 89 90 93 90 94 98 93 95 100 100 100 100 100 100 100 93 79 96 100 62 60 19 33 5 16
5 0 40 37 95 73 97 100 100 100 100 100 100 100 100 100 100 100 100 100 100 95 99 98 90 95 100 100 100 100 100 100 99 94 100 87 88 90 99 98 98 100 99 100
0 1 5 55 87 100 100 100 100 100 100 100 100 100 100 100 100 100 100 100 100 100 99 100 100 100 100 94 100 100 100 100 98 100 100 100 100 100 100 100 100 100 100 100
1 4 14 48 94 90 77 97 96 100 100 100 100 100 100 100 100 100 100 100 100 100 100 100 100 100 100 100 100 100 100 100 100 100 100 100 100 100 100 100 100 100 100 100
58 5 5 16 20 34 34 89 98 97 100 100 100 100 100 100 100 100 100 100 100 100 100 100 100 100 100 100 99 100 100 100 100 100 100 100 100 100 100 100 100 100 100 100
3 5 20 14 57 87 93 100 100 100 100 100 100 100 100 100 100 100 100 100 100 100 100 100 100 100 100 100 100 100 100 100 100 100 100 100 100 100 100 100 100 100 100 100
5 5 18 13 74 100 100 100 100 100 100 100 100 100 100 100 100 100 100 100 100 100 100 100 100 100 100 100 100 100 100 100 100 100 100 100 100 100 94 99 100 100 100 100
5 58 90 98 100 95 87 86 94 100 100 100 100 100 99 100 100 100 100 100 100 100 100 100 100 100 100 100 100 100 100 100 100 100 100 100 100 99 90 82 94 100 79 99
5 38 94 73 73 70 55 62 70 85 100 99 99 100 100 100 100 100 100 100 100 100 100 100 100 100 100 100 100 100 100 100 100 100 100 100 100 100 79 68 84 81 64 20
5 86 7 6 6 26 77 79 8 22 100 98 98 100 100 100 100 100 100 100 100 100 100 100 100 100 100 100 100 100 100 100 100 100 100 100 100 100 98 97 100 90 86 67